Home > Weather > Astana > Past weeks

Flag for Kazakhstan Weather for the Past 2 Weeks in Astana, Kazakhstan

Now
61 °F

Passing clouds.


Feels Like: 61 °F
Forecast: 44 / 62 °F
Wind: 3 mph from East

Location: Astana

Current Time: May 1, 2016 at 6:02:47 PM

Latest Report: May 1, 2016 at 5:30 PM


Visibility: N/A

Pressure: 30.01 "Hg

Humidity: 22%

Dew Point: 21 °F

Location of AstanaLocation

Historic Weather in Astana — Graph

°F

Astana Temperature Yesterday

Maximum temperature yesterday: 59 °F (at 4:00 PM)
Minimum temperature yesterday: 36 °F (at 4:30 AM)
Average temperature yesterday: 49 °F

High & Low Weather Summary for the Past Weeks

 TemperatureHumidityPressure
High75 °F (Apr 18, 3:30 PM)100% (Apr 21, 7:00 AM)30.42 "Hg (Apr 21, 7:00 AM)
Low34 °F (Apr 28, 6:00 AM)16% (Apr 25, 5:30 PM)29.83 "Hg (Apr 21, 1:30 PM)
Average53 °F57%30.05 "Hg
* Reported Apr 16 5:00 PM — May 1 5:00 PM, Astana, Weather by CustomWeather, © 2016

Note: Actual official high and low records may vary slightly from our data, if they occured in-between our weather recording intervals... More about our weather records

Advertising

Astana Weather History for the Previous 24 Hours

Scroll right to see more
 ConditionsComfort  
Time TempWeatherWind HumidityBarometerVisibility
5:00 PM
Sun, May 1
61 °FPassing clouds.6 mph22%30.01 "HgN/A
4:30 PM61 °FPassing clouds.3 mph25%30.01 "HgN/A
4:00 PM61 °FSunny.3 mph23%30.04 "Hg10 mi
3:30 PM61 °FSunny.3 mph22%30.04 "Hg10 mi
3:00 PM63 °FPassing clouds.6 mph24%30.04 "HgN/A
2:30 PM61 °FPassing clouds.6 mph23%30.07 "HgN/A
2:00 PM61 °FMore clouds than sun.8 mph23%30.07 "HgN/A
1:30 PM61 °FMore clouds than sun.6 mph23%30.07 "HgN/A
1:00 PM61 °FMore clouds than sun.8 mph23%30.09 "HgN/A
12:30 PM59 °FMore clouds than sun.8 mph23%30.09 "HgN/A
12:00 PM59 °FMore clouds than sun.6 mph23%30.12 "HgN/A
11:30 AM59 °FMore clouds than sun.6 mph27%30.12 "HgN/A
11:00 AM59 °FOvercast.6 mph25%30.12 "HgN/A
10:30 AM59 °FPartly sunny.3 mph27%30.15 "HgN/A
10:00 AM55 °FPassing clouds.3 mph41%30.15 "HgN/A
9:00 AM50 °FPassing clouds.3 mph54%30.15 "HgN/A
8:30 AM48 °FPassing clouds.3 mph58%30.18 "HgN/A
8:00 AM48 °FSunny.1 mph62%30.18 "Hg10 mi
7:30 AM46 °FSunny.No wind66%30.18 "Hg10 mi
7:00 AM43 °FSunny.No wind71%30.18 "Hg10 mi
6:30 AM37 °FClear.1 mph75%30.18 "Hg10 mi
6:00 AM37 °FClear.1 mph75%30.18 "Hg10 mi
5:30 AM39 °FClear.3 mph70%30.18 "Hg10 mi
5:00 AM37 °FClear.1 mph75%30.21 "Hg10 mi
4:30 AM37 °FClear.No wind70%30.21 "Hg10 mi
4:00 AM39 °FClear.1 mph61%30.21 "Hg10 mi
3:30 AM39 °FClear.1 mph61%30.21 "Hg10 mi
3:00 AM37 °FClear.1 mph70%30.21 "Hg10 mi
2:30 AM45 °FPassing clouds.3 mph66%30.24 "HgN/A
2:00 AM46 °FClear.8 mph76%30.24 "Hg10 mi
1:30 AM46 °FPassing clouds.3 mph66%30.24 "HgN/A
1:00 AM45 °FClear.3 mph53%30.24 "Hg10 mi
12:30 AM45 °FPassing clouds.3 mph49%30.24 "HgN/A
12:00 AM48 °FClear.No wind37%30.27 "Hg10 mi
11:30 PM
Sat, Apr 30
48 °FClear.No wind37%30.27 "Hg10 mi
11:00 PM48 °FClear.No wind34%30.27 "Hg10 mi
10:30 PM52 °FClear.No wind30%30.27 "Hg10 mi
10:00 PM54 °FClear.No wind28%30.30 "Hg10 mi
9:30 PM54 °FSunny.1 mph28%30.30 "Hg10 mi
9:00 PM54 °FSunny.1 mph28%30.27 "Hg10 mi
8:30 PM55 °FSunny.1 mph28%30.27 "Hg10 mi
8:00 PM55 °FPassing clouds.3 mph31%30.27 "HgN/A
7:30 PM55 °FPassing clouds.6 mph28%30.30 "HgN/A
7:00 PM57 °FSunny.6 mph29%30.30 "Hg10 mi
6:30 PM57 °FPassing clouds.6 mph29%30.30 "HgN/A
6:00 PM59 °FPassing clouds.6 mph27%30.30 "HgN/A
Weather by CustomWeather, © 2016

See weather overviewHow to use our weather pages